DW4669 Weather Reports


Display with metric or nautical units.
time (UTC)temp
F
wind
direction
speed
MPH
gust
MPH
rain 1hr
in
rain 24hr
in
rain mn
in
humidity
%
barometer
mb
20260510130511 54 0 0.0 2.0 0.00 0.16 0.00 98 1012.4
20260510130029 53 0 0.0 2.0 0.00 0.16 0.00 98 1012.2
20260510125511 53 0 0.0 0.0 0.00 0.16 0.00 98 1012.2
20260510125009 52 0 0.0 0.0 0.00 0.16 0.00 97 1012.1
20260510124530 52 0 0.0 0.0 0.00 0.16 0.00 98 1012.1
20260510124012 52 0 0.0 0.0 0.00 0.16 0.00 98 1012.2
20260510123510 52 0 0.0 0.0 0.00 0.16 0.00 98 1012.1
20260510123030 52 0 0.0 0.0 0.00 0.16 0.00 97 1012.0
20260510122511 52 0 0.0 0.0 0.00 0.16 0.00 97 1012.0
20260510122011 51 0 0.0 0.0 0.00 0.16 0.00 97 1011.8
20260510121528 51 0 0.0 0.0 0.00 0.16 0.00 97 1011.7
20260510121011 52 0 0.0 0.0 0.00 0.16 0.00 98 1011.8
20260510120513 51 0 0.0 0.0 0.00 0.16 0.00 98 1011.8
20260510120030 51 0 0.0 0.0 0.00 0.16 0.00 98 1011.6
20260510115511 51 0 0.0 0.0 0.00 0.17 0.00 97 1011.6
20260510115016 51 0 0.0 0.0 0.00 0.17 0.00 97 1011.5
20260510114530 51 0 0.0 0.0 0.00 0.17 0.00 97 1011.4
20260510114013 51 0 0.0 0.0 0.00 0.17 0.00 98 1011.3
20260510113511 51 0 0.0 0.0 0.00 0.17 0.00 98 1011.5
20260510113030 51 0 0.0 0.0 0.00 0.17 0.00 97 1011.5
20260510112512 51 0 0.0 0.0 0.00 0.17 0.00 97 1011.4
20260510112017 50 0 0.0 0.0 0.00 0.17 0.00 97 1011.3
20260510111530 50 0 0.0 0.0 0.00 0.17 0.00 97 1011.3
20260510111011 50 0 0.0 0.0 0.00 0.17 0.00 98 1011.2
20260510110512 50 0 0.0 0.0 0.00 0.17 0.00 98 1011.0
20260510110205 50 0 0.0 0.0 0.00 0.17 0.00 97 1011.0
20260510105515 50 0 0.0 0.0 0.00 0.17 0.00 98 1011.0
20260510105016 49 0 0.0 0.0 0.00 0.17 0.00 98 1011.0
20260510104532 49 0 0.0 0.0 0.00 0.17 0.00 97 1010.8
20260510104012 49 0 0.0 0.0 0.00 0.17 0.00 97 1010.8
20260510103514 49 0 0.0 0.0 0.00 0.17 0.00 97 1010.7
20260510103031 49 0 0.0 0.0 0.00 0.17 0.00 97 1010.7
20260510102511 49 0 0.0 0.0 0.00 0.17 0.00 97 1010.6
20260510102014 49 0 0.0 0.0 0.00 0.17 0.00 97 1010.5
20260510101527 49 0 0.0 0.0 0.00 0.17 0.00 97 1010.5
20260510101013 49 0 0.0 0.0 0.00 0.17 0.00 97 1010.6
20260510100509 49 0 0.0 0.0 0.00 0.17 0.00 97 1010.6
20260510100030 49 0 0.0 0.0 0.00 0.17 0.00 97 1010.6
20260510095514 49 0 0.0 0.0 0.00 0.17 0.00 97 1010.4
20260510095017 49 0 0.0 0.0 0.00 0.17 0.00 97 1010.4
20260510094541 49 0 0.0 0.0 0.00 0.17 0.00 97 1010.2
20260510094012 49 0 0.0 0.0 0.00 0.17 0.00 97 1010.2
20260510093512 49 0 0.0 0.0 0.00 0.17 0.00 97 1010.3
20260510093034 49 0 0.0 0.0 0.00 0.17 0.00 97 1010.2
20260510092520 49 0 0.0 0.0 0.00 0.17 0.00 97 1010.0
20260510092012 49 0 0.0 0.0 0.00 0.17 0.00 97 1010.0
20260510091534 49 0 0.0 0.0 0.00 0.17 0.00 97 1010.1
20260510091013 49 0 0.0 0.0 0.00 0.17 0.00 97 1010.1
20260510090510 49 0 0.0 0.0 0.00 0.17 0.00 97 1010.1
20260510090033 49 0 0.0 0.0 0.00 0.17 0.00 97 1010.1
20260510085512 49 0 0.0 0.0 0.00 0.17 0.00 97 1010.1
20260510085010 49 0 0.0 0.0 0.00 0.17 0.00 97 1010.2
20260510084534 49 0 0.0 0.0 0.00 0.17 0.00 97 1010.3
20260510084011 49 0 0.0 0.0 0.00 0.17 0.00 97 1010.3
20260510083511 49 0 0.0 0.0 0.00 0.17 0.00 97 1010.4
20260510083047 49 0 0.0 0.0 0.00 0.17 0.00 97 1010.5
20260510082512 49 0 0.0 0.0 0.00 0.17 0.00 97 1010.4
20260510082015 48 0 0.0 0.0 0.00 0.17 0.00 97 1010.8
20260510081528 48 0 0.0 0.0 0.00 0.17 0.00 97 1010.8
20260510081011 48 0 0.0 0.0 0.00 0.17 0.00 97 1010.7
20260510080511 48 0 0.0 0.0 0.00 0.17 0.00 97 1010.7
20260510080029 48 0 0.0 0.0 0.00 0.17 0.00 97 1010.8
20260510075511 47 0 0.0 0.0 0.00 0.18 0.00 97 1010.8
20260510075011 47 0 0.0 0.0 0.00 0.18 0.00 97 1010.9
20260510074530 47 0 0.0 0.0 0.00 0.18 0.00 97 1011.0
20260510074012 47 0 0.0 0.0 0.00 0.18 0.00 97 1011.1
20260510073510 46 0 0.0 0.0 0.00 0.18 0.00 97 1011.2
20260510073028 46 0 0.0 0.0 0.00 0.18 0.00 97 1011.2
20260510072514 46 0 0.0 0.0 0.00 0.18 0.00 97 1011.0
20260510072012 46 0 0.0 1.0 0.00 0.18 0.00 97 1011.2
20260510071535 46 0 0.0 1.0 0.00 0.18 0.00 97 1011.0
20260510071014 46 0 0.0 0.0 0.00 0.18 0.00 97 1011.4
20260510070511 45 0 0.0 3.0 0.00 0.18 0.00 97 1011.4
20260510070028 44 0 0.0 4.0 0.00 0.18 0.00 97 1011.4
20260510065512 43 0 2.0 4.0 0.00 0.19 0.00 96 1011.6
20260510065015 43 0 0.0 0.0 0.00 0.19 0.00 96 1010.8
20260510064529 43 0 0.0 0.0 0.00 0.19 0.00 96 1010.7
20260510064012 44 0 0.0 0.0 0.00 0.19 0.00 96 1010.7
20260510063515 44 0 0.0 0.0 0.00 0.19 0.00 97 1010.7
20260510063030 43 0 0.0 0.0 0.00 0.19 0.00 97 1010.7
20260510062511 43 0 0.0 0.0 0.00 0.19 0.00 96 1010.8
20260510062012 43 0 0.0 0.0 0.00 0.19 0.00 96 1010.8
20260510061534 43 0 0.0 0.0 0.00 0.19 0.00 96 1010.7
20260510061012 43 0 0.0 0.0 0.00 0.19 0.00 96 1010.8
20260510060512 43 0 0.0 0.0 0.00 0.19 0.00 97 1010.8
20260510060038 43 0 0.0 0.0 0.00 0.19 0.00 97 1011.0
20260510055511 42 0 0.0 0.0 0.00 0.19 0.00 97 1011.0
20260510055013 42 0 0.0 0.0 0.00 0.19 0.00 97 1011.1
20260510054535 42 0 0.0 0.0 0.00 0.19 0.00 96 1011.0
20260510054016 41 0 0.0 0.0 0.00 0.19 0.00 96 1011.0
20260510053512 41 0 0.0 0.0 0.00 0.19 0.00 96 1010.8
20260510053030 41 0 0.0 0.0 0.00 0.19 0.00 95 1010.7
20260510052514 41 0 0.0 0.0 0.00 0.19 0.00 95 1010.7
20260510052013 41 0 0.0 0.0 0.00 0.19 0.00 96 1010.4
20260510051529 41 0 0.0 0.0 0.00 0.19 0.00 96 1010.3
20260510051012 41 0 0.0 0.0 0.00 0.19 0.00 96 1010.2
20260510050510 41 0 0.0 0.0 0.00 0.19 0.00 95 1010.1
20260510050030 41 0 0.0 0.0 0.00 0.19 0.00 95 1010.3
20260510045514 41 0 0.0 0.0 0.00 0.19 0.00 95 1010.4
20260510045012 42 0 0.0 0.0 0.00 0.19 0.00 95 1010.4
20260510044528 42 0 0.0 0.0 0.00 0.19 0.00 95 1010.5
20260510044011 42 0 0.0 0.0 0.00 0.19 0.00 95 1010.5
20260510043511 42 0 0.0 0.0 0.00 0.19 0.00 95 1010.6
20260510043033 43 0 0.0 0.0 0.00 0.19 0.00 96 1010.6
20260510042517 43 0 0.0 0.0 0.00 0.19 0.00 96 1010.7
20260510042011 43 0 0.0 0.0 0.00 0.19 0.00 96 1010.4
20260510041529 42 0 0.0 0.0 0.00 0.19 0.00 95 1010.4
20260510041010 42 0 0.0 0.0 0.01 0.19 0.00 95 1010.4
20260510040511 42 0 0.0 0.0 0.01 0.19 0.00 95 1010.3
20260510040032 42 0 0.0 0.0 0.01 0.19 0.00 95 1010.3
20260510035511 42 0 0.0 0.0 0.01 0.19 0.19 95 1010.2
20260510035012 42 0 0.0 0.0 0.01 0.19 0.19 95 1010.2
20260510034529 43 0 0.0 0.0 0.01 0.19 0.19 94 1010.2
20260510034012 43 0 0.0 0.0 0.01 0.19 0.19 95 1010.2
20260510033512 44 0 0.0 0.0 0.01 0.19 0.19 95 1010.2
20260510033030 43 0 0.0 0.0 0.01 0.19 0.19 95 1010.1
20260510032511 44 0 0.0 0.0 0.01 0.19 0.19 95 1010.0
20260510032011 44 0 0.0 0.0 0.01 0.19 0.19 94 1010.3
20260510031530 44 0 0.0 0.0 0.01 0.19 0.19 95 1010.1
20260510031010 45 0 0.0 0.0 0.00 0.18 0.18 95 1010.2
20260510030516 45 0 0.0 0.0 0.00 0.18 0.18 95 1010.2
20260510030029 45 0 0.0 0.0 0.00 0.18 0.18 95 1010.2
20260510025516 45 0 0.0 0.0 0.00 0.18 0.18 95 1010.3
20260510025012 45 0 0.0 0.0 0.00 0.18 0.18 95 1010.3
20260510024527 45 0 0.0 0.0 0.00 0.18 0.18 94 1010.4
20260510024011 45 0 0.0 0.0 0.00 0.18 0.18 94 1010.4
20260510023511 46 0 0.0 0.0 0.00 0.18 0.18 94 1010.2
20260510023030 46 0 0.0 0.0 0.00 0.18 0.18 95 1010.1
20260510022510 46 0 0.0 0.0 0.00 0.18 0.18 95 1010.1
20260510022010 47 0 0.0 0.0 0.00 0.18 0.18 95 1010.1
20260510021528 47 0 0.0 0.0 0.00 0.18 0.18 95 1010.1
20260510021009 47 0 0.0 0.0 0.00 0.18 0.18 95 1010.2
20260510020515 47 0 0.0 0.0 0.00 0.18 0.18 95 1010.1
20260510020030 47 0 0.0 0.0 0.00 0.18 0.18 95 1010.1
20260510015512 47 0 0.0 0.0 0.00 0.18 0.18 95 1010.1
20260510015011 48 0 0.0 0.0 0.00 0.18 0.18 95 1010.1
20260510014530 48 0 0.0 0.0 0.00 0.18 0.18 95 1010.1
20260510014012 48 0 0.0 0.0 0.00 0.18 0.18 95 1010.1
20260510013513 48 0 0.0 0.0 0.00 0.18 0.18 95 1009.9
20260510013028 48 0 0.0 0.0 0.00 0.18 0.18 94 1009.9
20260510012511 48 0 0.0 0.0 0.00 0.18 0.18 94 1010.0
20260510012011 49 0 0.0 0.0 0.00 0.18 0.18 94 1009.9
20260510011531 49 0 0.0 0.0 0.00 0.18 0.18 94 1010.0
20260510011010 49 0 0.0 0.0 0.00 0.18 0.18 94 1009.8
20260510010511 49 0 0.0 0.0 0.00 0.18 0.18 94 1009.8
20260510010029 49 0 0.0 0.0 0.00 0.18 0.18 94 1009.7
20260510005512 50 0 0.0 0.0 0.00 0.18 0.18 94 1009.7
20260510005015 50 0 0.0 0.0 0.00 0.18 0.18 94 1009.6
20260510004528 50 0 0.0 0.0 0.00 0.18 0.18 93 1009.6
20260510004015 51 0 0.0 0.0 0.00 0.18 0.18 94 1009.5
20260510003515 51 0 0.0 0.0 0.00 0.18 0.18 94 1009.5
20260510003038 51 0 0.0 0.0 0.00 0.18 0.18 94 1009.5
20260510002515 51 0 0.0 0.0 0.00 0.18 0.18 94 1009.4
20260510002014 52 0 0.0 1.0 0.00 0.18 0.18 93 1009.4
20260510001530 52 0 0.0 1.0 0.00 0.18 0.18 94 1009.2
20260510001014 52 0 0.0 2.0 0.00 0.18 0.18 93 1009.0
20260510000514 52 0 0.0 2.0 0.00 0.18 0.18 93 1009.0
20260510000031 53 0 0.0 2.0 0.00 0.18 0.18 93 1009.0
20260509235513 53 0 0.0 1.0 0.00 0.18 0.18 93 1009.1
20260509235011 53 0 0.0 1.0 0.00 0.18 0.18 93 1009.0
20260509234538 54 0 0.0 4.0 0.00 0.18 0.18 93 1009.0
20260509234011 54 0 0.0 4.0 0.00 0.18 0.18 93 1009.0
20260509233514 54 0 0.0 2.0 0.00 0.18 0.18 94 1009.2
20260509233030 54 0 0.0 2.0 0.00 0.18 0.18 93 1009.2
20260509232515 54 0 0.0 0.0 0.00 0.18 0.18 93 1009.1
20260509232019 55 0 0.0 0.0 0.00 0.18 0.18 93 1009.2
20260509231533 55 0 0.0 3.0 0.00 0.18 0.18 93 1009.1
20260509231012 55 0 0.0 3.0 0.00 0.18 0.18 93 1009.2
20260509230513 55 0 0.0 3.0 0.00 0.18 0.18 93 1009.1
20260509230031 56 0 0.0 1.0 0.00 0.18 0.18 94 1009.1
20260509225515 56 0 0.0 0.0 0.00 0.18 0.18 95 1009.1
20260509225014 55 0 0.0 0.0 0.00 0.18 0.18 95 1009.2
20260509224534 55 0 0.0 2.0 0.00 0.18 0.18 94 1009.2
20260509224014 55 0 0.0 2.0 0.00 0.18 0.18 94 1009.2
20260509223516 55 0 0.0 2.0 0.00 0.18 0.18 94 1009.3
20260509223034 55 0 0.0 1.0 0.00 0.18 0.18 94 1009.3
20260509222515 54 0 0.0 1.0 0.00 0.18 0.18 94 1009.2
20260509222015 54 0 0.0 1.0 0.00 0.18 0.18 94 1009.2
20260509221533 54 0 0.0 1.0 0.00 0.18 0.18 94 1009.2
20260509221016 54 0 0.0 1.0 0.00 0.18 0.18 94 1009.2
20260509220515 54 0 0.0 1.0 0.00 0.18 0.18 94 1009.3
20260509220030 54 0 0.0 2.0 0.00 0.18 0.18 94 1009.3
20260509215516 54 0 0.0 2.0 0.01 0.18 0.18 94 1009.3
20260509215015 54 0 0.0 1.0 0.01 0.18 0.18 94 1009.5
20260509214845 54 0 0.0 1.0 0.01 0.18 0.18 94 1009.3
20260509214529 54 0 0.0 1.0 0.01 0.18 0.18 94 1009.3
20260509214014 55 0 0.0 0.0 0.01 0.18 0.18 94 1009.4
20260509213512 55 0 0.0 0.0 0.01 0.18 0.18 94 1009.4
20260509213030 54 0 0.0 0.0 0.02 0.18 0.18 94 1009.5
20260509212509 54 0 0.0 0.0 0.02 0.18 0.18 94 1009.5
20260509212014 54 0 0.0 0.0 0.03 0.18 0.18 94 1009.6
20260509211527 54 0 0.0 0.0 0.04 0.18 0.18 94 1009.4
20260509211011 54 0 0.0 3.0 0.05 0.18 0.18 94 1009.5
20260509210511 54 0 0.0 3.0 0.05 0.18 0.18 94 1009.5
20260509210028 54 0 0.0 3.0 0.05 0.18 0.18 93 1009.5
20260509205510 54 0 0.0 4.0 0.04 0.17 0.17 93 1009.6
20260509205012 54 0 0.0 4.0 0.04 0.17 0.17 94 1009.6
20260509204536 54 0 0.0 1.0 0.05 0.17 0.17 94 1009.6
20260509204010 54 0 0.0 1.0 0.05 0.17 0.17 94 1009.6
20260509203513 54 0 0.0 3.0 0.05 0.17 0.17 93 1009.7
20260509203038 54 0 0.0 3.0 0.04 0.16 0.16 93 1009.7
20260509202511 54 0 0.0 2.0 0.04 0.16 0.16 93 1009.9
20260509202010 54 0 0.0 2.0 0.04 0.15 0.15 93 1010.0
20260509201528 54 0 0.0 6.0 0.03 0.14 0.14 93 1010.0
20260509201015 54 0 0.0 6.0 0.02 0.13 0.13 92 1010.0
20260509200513 54 257 0.0 5.0 0.02 0.13 0.13 93 1010.1
20260509200030 54 0 0.0 1.0 0.02 0.13 0.13 93 1010.0
20260509195511 54 0 0.0 5.0 0.02 0.13 0.13 93 1010.1
20260509195012 54 0 0.0 5.0 0.03 0.13 0.13 92 1010.2
20260509194531 54 240 0.0 1.0 0.02 0.12 0.12 93 1010.3
20260509194012 54 0 0.0 1.0 0.03 0.12 0.12 93 1010.3
20260509193513 54 0 0.0 3.0 0.04 0.12 0.12 93 1010.4
20260509193030 54 0 0.0 3.0 0.04 0.12 0.12 92 1010.6
20260509192512 54 0 0.0 3.0 0.04 0.12 0.12 92 1010.5
20260509192015 54 0 0.0 1.0 0.04 0.11 0.11 92 1010.5
20260509191537 55 0 0.0 1.0 0.04 0.11 0.11 92 1010.6
20260509191013 54 0 0.0 1.0 0.05 0.11 0.11 92 1010.7
20260509190513 55 0 0.0 2.0 0.05 0.11 0.11 92 1010.7
20260509190028 55 0 0.0 2.0 0.05 0.11 0.11 92 1010.8
20260509185513 55 0 0.0 5.0 0.05 0.11 0.11 92 1010.8
20260509185015 54 0 0.0 5.0 0.04 0.10 0.10 91 1010.8
20260509184533 55 0 0.0 3.0 0.05 0.10 0.10 91 1011.0
20260509184011 55 289 0.0 7.0 0.04 0.09 0.09 92 1011.1
20260509183510 55 281 0.0 7.0 0.03 0.08 0.08 91 1011.3
20260509183030 55 303 1.0 5.0 0.03 0.08 0.08 92 1011.4
20260509182512 55 0 0.0 6.0 0.02 0.07 0.07 92 1011.2
20260509182012 55 275 0.0 6.0 0.02 0.07 0.07 92 1011.2
20260509181527 55 0 0.0 6.0 0.01 0.06 0.06 92 1011.1
20260509181012 55 0 0.0 6.0 0.01 0.06 0.06 93 1011.0
20260509180512 55 306 0.0 4.0 0.01 0.06 0.06 93 1010.9
20260509180028 55 321 0.0 5.0 0.01 0.06 0.06 93 1010.9
20260509175512 55 0 0.0 5.0 0.01 0.06 0.06 93 1011.0
20260509175011 55 242 0.0 5.0 0.01 0.06 0.06 93 1010.8
20260509174528 55 13 1.0 5.0 0.00 0.05 0.05 93 1010.8
20260509174011 55 0 0.0 3.0 0.00 0.05 0.05 94 1010.8
20260509173511 55 296 1.0 4.0 0.00 0.05 0.05 94 1010.8
20260509173028 55 323 0.0 5.0 0.00 0.05 0.05 94 1010.7
20260509172511 55 326 1.0 5.0 0.00 0.05 0.05 94 1010.7
20260509172014 55 0 0.0 3.0 0.00 0.05 0.05 94 1010.7
20260509171530 55 0 0.0 1.0 0.00 0.05 0.05 93 1010.5
20260509171019 55 0 0.0 2.0 0.01 0.05 0.05 93 1010.5
20260509170509 54 0 0.0 3.0 0.01 0.05 0.05 94 1010.5
20260509170039 55 0 0.0 3.0 0.01 0.05 0.05 94 1010.5
20260509165512 54 0 0.0 3.0 0.01 0.05 0.05 94 1010.5
20260509165016 54 0 0.0 3.0 0.01 0.05 0.05 94 1010.6
20260509164536 54 0 0.0 3.0 0.01 0.05 0.05 94 1010.6
20260509164013 54 0 0.0 3.0 0.01 0.05 0.05 94 1010.7
20260509163512 54 0 0.0 3.0 0.01 0.05 0.05 94 1010.8
20260509163030 54 0 0.0 3.0 0.01 0.05 0.05 94 1010.9
20260509162511 54 0 0.0 3.0 0.01 0.05 0.05 94 1010.9
20260509162018 54 315 0.0 3.0 0.02 0.05 0.05 94 1010.9
20260509161533 53 0 0.0 3.0 0.02 0.05 0.05 94 1011.1
20260509161011 53 0 0.0 1.0 0.01 0.04 0.04 94 1011.0
20260509160510 53 0 0.0 0.0 0.01 0.04 0.04 94 1011.0
20260509160033 53 0 0.0 2.0 0.01 0.04 0.04 94 1011.2
20260509155513 52 0 0.0 2.0 0.01 0.04 0.04 94 1011.2
20260509155014 52 0 0.0 1.0 0.01 0.04 0.04 94 1011.4
20260509154531 52 0 0.0 1.0 0.01 0.04 0.04 94 1011.3
20260509154011 52 0 0.0 3.0 0.01 0.04 0.04 94 1011.4
20260509153514 52 0 0.0 3.0 0.01 0.04 0.04 94 1011.5
20260509153038 52 0 0.0 3.0 0.01 0.04 0.04 94 1011.6
20260509152511 52 315 0.0 3.0 0.01 0.04 0.04 94 1011.7
20260509152011 52 0 0.0 3.0 0.00 0.03 0.03 94 1011.8
20260509151530 52 0 0.0 4.0 0.00 0.03 0.03 93 1011.7
20260509151010 52 0 0.0 4.0 0.00 0.03 0.03 93 1011.6
20260509150509 51 0 0.0 3.0 0.00 0.03 0.03 93 1011.7
20260509150030 51 315 0.0 3.0 0.00 0.03 0.03 93 1011.6
20260509145510 51 315 0.0 2.0 0.00 0.03 0.03 93 1011.5
20260509145011 52 0 0.0 4.0 0.00 0.03 0.03 93 1011.4
20260509144533 51 0 1.0 4.0 0.00 0.03 0.03 93 1011.4
20260509144010 51 323 1.0 4.0 0.00 0.03 0.03 94 1011.4
20260509143512 51 333 0.0 5.0 0.00 0.03 0.03 94 1011.2
20260509143030 51 321 1.0 5.0 0.00 0.03 0.03 94 1011.2
20260509142512 51 332 2.0 5.0 0.00 0.03 0.03 93 1011.4
20260509142010 51 0 2.0 4.0 0.00 0.03 0.03 93 1011.2
20260509141531 51 321 1.0 3.0 0.00 0.03 0.03 94 1011.3
20260509141015 51 322 1.0 3.0 0.00 0.03 0.03 94 1011.4
20260509140509 51 0 1.0 3.0 0.00 0.03 0.03 94 1011.3
20260509140028 51 0 0.0 3.0 0.00 0.03 0.03 95 1011.4
20260509135515 51 0 0.0 1.0 0.00 0.03 0.03 95 1011.3
20260509135013 51 0 0.0 2.0 0.00 0.03 0.03 94 1011.3
20260509134530 51 0 0.0 3.0 0.00 0.03 0.03 94 1011.5
20260509134013 51 0 0.0 3.0 0.00 0.03 0.03 94 1011.5
20260509133509 50 0 0.0 4.0 0.00 0.03 0.03 94 1011.4
20260509133028 50 316 0.0 4.0 0.00 0.03 0.03 94 1011.5
20260509132512 50 315 0.0 3.0 0.00 0.03 0.03 94 1011.6
20260509132014 50 0 0.0 2.0 0.00 0.03 0.03 94 1011.7
20260509131533 50 0 0.0 2.0 0.00 0.03 0.03 94 1011.7
20260509131013 50 0 0.0 2.0 0.00 0.03 0.03 94 1011.6